Powrót do katalogu

SL-14 R/B

AktywnyPO
NORAD 20671·ROCKET BODY·🇷🇺 Russia

Wystrzelony Jun 27, 1990 z Plesetsk Cosmodrome

Loading…

Następne Przeloty (najbliższe 24 godziny)

TLE

ŚwieżeSource: Space-Track

Epoka: Sep 14, 2026, 14:42 UTC

1 20671U 90057B   26257.61270955  .00000027  00000-0  10664-4 0  9994
2 20671  82.5480 208.0474 0014962 187.3378 172.7566 13.84741628830042

Śledź SL-14 R/B w czasie rzeczywistym z AllMySat

Download on the App Store